Preview of NWS' New Version of Forecast
This preview is not operational and should not be used for support decisions.

Regional Weather Roundup (RWR)

Issued by National Weather Service (NWS)

                            
000
ASUS44 KJAN 152310
RWRMS 

MISSISSIPPI HOURLY WEATHER ROUNDUP
NATIONAL WEATHER SERVICE JACKSON MS
500 PM CST FRI FEB 15 2019

NOTE: "FAIR: INDICATES FEW OR NO CLOUDS BELOW 12,000 FEET WITH NO
SIGNIFICANT WEATHER AND/OR OBSTRUCTIONS TO VISIBILITY.

MSZ001>002-007>008-010>013-018>021-025>028-034>036-160000-
NORTHWEST MISSISSIPPI
  
CITY           SKY/WX    TMP DP  RH WIND       PRES   REMARKS
BATESVILLE     CLOUDY    52  50  93 NE13G20   29.73F                  
CLARKSDALE     CLOUDY    52  50  93 N9        29.76R                  
CLEVELAND      CLOUDY    52  52 100 NE6       29.72S                  
GREENWOOD      CLOUDY    64  59  83 SE7       29.72F                  
GREENVILLE     CLOUDY    55  53  93 NE10      29.70F                  
OLIVE BRANCH   CLOUDY    41  41 100 NE12G18   29.80S FOG              
OXFORD         CLOUDY    52  50  93 NE6       29.77F                  
TUNICA         LGT RAIN  45  43  93 N10       29.81R                  
WINONA         CLOUDY    63  61  93 S7        29.73F                  
$$

MSZ003>006-009-014>017-022>024-029>033-037>039-160000-
NORTHEAST MISSISSIPPI
  
CITY           SKY/WX    TMP DP  RH WIND       PRES   REMARKS
ABERDEEN       MOCLDY    61  61 100 SE7       29.77F                  
COLUMBUS AFB   CLOUDY    63  58  84 S5        29.75F                  
CORINTH        CLOUDY    46  45  93 NE8       29.80S                  
GOLDN TRIANGLE LGT RAIN  63  60  90 S6        29.77R                  
STARKVILLE     CLOUDY    63  59  88 S5        29.77S                  
TUPELO         CLOUDY    56  54  93 N9        29.77R FOG              
$$

MSZ040-058-160000-
CENTRAL MISSISSIPPI
  
CITY           SKY/WX    TMP DP  RH WIND       PRES   REMARKS
JACKSON INTL   MOCLDY    68  62  81 S9        29.75S                  
JACKSON HAWKNS MOCLDY    68  64  87 S9        29.75R                  
MADISON        CLOUDY    66  64  94 CALM      29.75S                  
MERIDIAN KEY   LGT RAIN  64  62  93 S7        29.78F FOG              
MERIDIAN NAS   CLOUDY    65  62  90 S6        29.78F                  
RAYMOND        FAIR      70  66  88 S9        29.73S                  
VICKSBURG VKS  PTCLDY    73  61  64 SW8       29.72S                  
$$

MSZ059>079-160000-
SOUTH MISSISSIPPI
  
CITY           SKY/WX    TMP DP  RH WIND       PRES   REMARKS
HATTIESBURG    CLOUDY    64  63  96 S8        29.81F FOG              
LAUREL         CLOUDY    64  64 100 S7        29.80R                  
MCCOMB         CLOUDY    69  62  78 S13       29.78R                  
NATCHEZ        FAIR      73  61  65 SW14      29.74R                  
PINE BELT      LGT RAIN  64  63  96 S8        29.81R FOG              
$$

MSZ080>082-160000-
COASTAL MISSISSIPPI
  
CITY           SKY/WX    TMP DP  RH WIND       PRES   REMARKS
BAY ST LOUIS   CLOUDY    66  61  82 S17       29.85R                  
BILOXI         CLOUDY    63  59  88 SW5       29.84R                  
PASCAGOULA     CLOUDY    67  59  75 S8        29.84S                  
GULFPORT       CLOUDY    65  60  84 S6        29.83S                  
$$

LAZ007>009-015>016-023>026-160000-
NORTHEAST LOUISIANA
  
CITY           SKY/WX    TMP DP  RH WIND       PRES   REMARKS
BASTROP        FAIR      72  60  65 SW7       29.69S                  
TALLULAH/VBURG FAIR      71  61  70 S8        29.72S                  
VIDALIA        FAIR      70  62  76 S8        29.72S                  
$$